Regional Weather Roundup
Issued by NWS

Home | Current Version | Previous Version | Text Only | Print | Product List | Glossary On
Versions: 1 2 3 4 5 6 7 8 9 10 11 12 13 14 15 16 17 18 19 20 21 22 23 24 25 26 27 28 29 30 31 32 33 34 35 36 37 38 39 40 41 42 43 44 45 46 47 48 49 50
000
ASUS43 KDTX 270210
RWRMI
MICHIGAN HOURLY REGIONAL WEATHER ROUNDUP
NATIONAL WEATHER SERVICE DETROIT/PONTIAC MI
1000 PM EDT SUN MAR 26 2017

NOTE: "FAIR" INDICATES FEW OR NO CLOUDS BELOW 12,000 FEET WITH NO
SIGNIFICANT WEATHER AND/OR OBSTRUCTION TO VISIBILITY.

MIZ047>049-052>055-059>063-066>070-074>076-081>083-270300-
SOUTHEAST LOWER MICHIGAN

CITY           SKY/WX    TMP DP  RH WIND       PRES   REMARKS
ADRIAN         MOCLDY    49  49 100 S3        29.90S FOG
ALMA           MIX PCPN  46  46 100 N6        29.87S VSB 1/2
ANN ARBOR      LGT RAIN  49  49 100 VRB3      29.89S FOG
BAD AXE        CLOUDY    47  47 100 S5        29.89S FOG
CARO           CLOUDY    49  49  99 S3        29.87S FOG
DETROIT CITY   FOG       48  48 100 CALM      29.90S VSB 1/4
DETROIT        LGT RAIN  49  49 100 CALM      29.90S VSB 3/4
FLINT          CLOUDY    50  49  96 S5        29.88S FOG
GROSSE ILE     LGT SNOW  47  46  99 S6        29.90S
HILLSDALE      RAIN      50  50 100 S7        29.88S
HOWELL         CLOUDY    50  48  93 S5        29.88S FOG

CITY           SKY/WX    TMP DP  RH WIND       PRES   REMARKS
JACKSON        LGT RAIN  52  51  97 S6        29.88S FOG
LAMBERTVILLE   CLOUDY    51  50  94 S3        29.90S FOG
LANSING        CLOUDY    52  49  89 S8        29.87S
LAPEER         CLOUDY    48  48  98 CALM      29.88S FOG
MASON          CLOUDY    51  51  99 S6        29.88S FOG
MONROE         LGT RAIN  49  49 100 S10       29.89S
MT. CLEMENS    FOG       45  45 100 SE5       29.89R VSB 1/8
PONTIAC        LGT RAIN  47  46  97 SE3       29.88S VSB 1/4
PORT HOPE        N/A     45  45 100 S7        29.87S
PORT HURON     LGT RAIN  48  46  93 S7        29.91R
TRI CITIES     FOG       42  42 100 N3        29.88R VSB 1/4
MIDLAND        SNOW      43  42  97 CALM      29.87S VSB 1/4
TROY           LGT RAIN  47  46  93 CALM      29.91S
SAGINAW HB     CLOUDY    45  43  93 CALM      29.87S FOG
$$
MIZ043>046-050>051-056>058-064>065-071>073-077>080-270300-
SOUTHWEST LOWER MICHIGAN

CITY           SKY/WX    TMP DP  RH WIND       PRES   REMARKS
BATTLE CREEK   LGT RAIN  53  52  96 S6        29.88R FOG
BENTON HARBOR  CLOUDY    55  50  83 SW10      29.87R
BIG RAPIDS     CLOUDY    43  42  96 CALM      29.85S FOG
COLDWATER      LGT RAIN  54  54  99 S3        29.88S
FREMONT        CLOUDY    47  47 100 CALM      29.85R FOG
HOLLAND        LGT RAIN  53  52  96 SE3       29.86S FOG
GRAND RAPIDS   CLOUDY    51  51 100 S6        29.85S FOG
IONIA          FOG       50  49  98 S3        29.86R VSB 3/4
KALAMAZOO      CLOUDY    53  50  89 S5        29.88R
LUDINGTON      FOG       47  47 100 SW8       29.84R VSB 3/4
MARSHALL       CLOUDY    54  53  98 S3        29.87S
MOUNT PLEASANT FOG       43  42  97 CALM      29.86S VSB 1/2
MUSKEGON       CLOUDY    51  49  92 CALM      29.85S FOG
SOUTH HAVEN    CLOUDY    55  54  97 SW7       29.86S
$$
MIZ016>042-270300-
NORTHERN LOWER MICHIGAN

CITY           SKY/WX    TMP DP  RH WIND       PRES   REMARKS
ALPENA         CLOUDY    37  37 100 CALM      29.88F FOG
BEAVER ISLAND  CLOUDY    35  35 100 E7        29.87S FOG     WCI  29
BELLAIRE       CLOUDY    42  41  95 CALM      29.86S FOG
CADILLAC       FOG       42  41  97 CALM      29.84S VSB 3/4
CHARLEVOIX     CLOUDY    40  40 100 E5        29.88S FOG
FRANKFORT      CLOUDY   N/A N/A N/A CALM      29.84S FOG
GAYLORD        FOG       41  38  89 SE3       29.84S VSB 1/2
GRAYLING       CLOUDY    39  39 100 CALM      29.86S FOG
HARBOR SPRINGS CLOUDY    37  37 100 NE7       29.86S FOG     WCI  31
HOUGHTON LAKE  FOG       40  39  97 CALM      29.86S VSB 1/2
MANISTEE       LGT RAIN  45  45 100 E3        29.83S VSB 1/2
OSCODA         FOG       38  37  97 CALM      29.87F VSB 1/2
PELLSTON       CLOUDY    36  34  92 E3        29.87F FOG
ROGERS CITY    MIX PCPN  37  35  94 SE3       29.89S
TRAVERSE CITY  CLOUDY    43  42  97 CALM      29.84S FOG
$$
MIZ007>008-015-270300-
EASTERN UPPER MICHIGAN

CITY           SKY/WX    TMP DP  RH WIND       PRES   REMARKS
KINROSS        MIX PCPN N/A N/A N/A E14       29.88F
MACKINAC ISLAN MIX PCPN  33  33 100 E12G17    29.87F WCI  25
NEWBERRY       FOG       32  31  97 N3        29.87F VSB 1
S. S. MARIE    LGT RAIN  34  33  96 E7        29.89F WCI  28
MUNISING         N/A     33  33 100 NE5       29.89S WCI  29
$$
MIZ004>006-011>014-085-270300-
CENTRAL UPPER MICHIGAN

CITY           SKY/WX    TMP DP  RH WIND       PRES   REMARKS
MANISTIQUE     DRIZZLE   34  32  93 NE3       29.87S
ESCANABA       FOG       35  35 100 CALM      29.89S VSB 3/4
MENOMINEE        N/A    N/A N/A N/A MISG        N/A
SAWYER-GWINN   CLOUDY    32  32 100 N3        29.87F
$$
MIZ001>003-009>011-084-270300-
WESTERN UPPER MICHIGAN

CITY           SKY/WX    TMP DP  RH WIND       PRES   REMARKS
IRON MOUNTAIN  LGT RAIN  36  34  92 NW3       29.86F
HOUGHTON       LGT RAIN  33  31  92 NW3       29.90S FOG
COPPER HARBOR    N/A     34  33  96 NE3       29.92R
IRONWOOD       MIX PCPN  32  31  96 CALM      29.93S FOG
$$

ABBREVIATIONS USED IN REMARKS
   TC - TEMPERATURE IN CELSIUS
  WCI - WIND CHILL INDEX
   HX - HEAT INDEX
  VSB - VISIBILITY





USA.gov is the U.S. government's official web portal to all federal, state and local government web resources and services.